Simultaneous Nadir Overpasses (SNOs) Predictions

Prediction of SNOs between METOP-A and TERRA Satellite Orbit:

Table of predicted SNOs for the next 14.0 days since TLE Epoch: 8/8/2015
Index Date (METOP-A) Time (METOP-A) Lat,Lon (METOP-A) SZA (METOP-A ) Date (TERRA) Time (TERRA) Lat,Lon (TERRA) SZA (TERRA ) Distance(km) Time Diff (sec)
1 08/09/2015 06:48:02 -81.35, -53.90 111.77 08/09/2015 06:48:05 -81.35, -53.79 111.76 1.77 3
2 08/09/2015 07:38:41 81.36, 114.01 68.31 08/09/2015 07:37:31 81.35, 113.96 68.27 0.99 70
3 08/12/2015 01:31:43 81.35,-155.00 69.03 08/12/2015 01:32:52 81.35,-154.96 69.07 0.68 69
4 08/12/2015 02:22:23 -81.35, 12.79 110.91 08/12/2015 02:22:19 -81.35, 12.62 110.93 3.00 4
5 08/14/2015 21:06:05 81.35, -88.76 69.88 08/14/2015 21:07:06 81.34, -88.65 69.92 1.84 61
6 08/14/2015 21:56:44 -81.36, 79.45 110.01 08/14/2015 21:56:32 -81.36, 79.34 110.03 2.00 12
7 08/17/2015 16:40:25 81.35, -22.15 70.80 08/17/2015 16:41:18 81.35, -22.03 70.84 1.97 53
8 08/17/2015 17:31:05 -81.36, 145.68 109.14 08/17/2015 17:30:45 -81.35, 145.59 109.16 1.54 20
9 08/20/2015 12:14:46 81.35, 44.43 71.74 08/20/2015 12:15:31 81.36, 44.51 71.78 1.48 45




NCC Satellite Simultaneous Nadir Overpasses (SNOs) Prediction Service
